Weather History for KAEL - October, 2012

Change the Weather History Date:

Wednesday, October 10, 2012

  Actual Average Record
Temperature  
Mean Temperature 40 °F -  
Max Temperature 51 °F 60 °F 78 °F (2010)
Min Temperature 28 °F 38 °F 28 °F (1996)
Degree Days  
Heating Degree Days 26    
Moisture  
Dew Point 26 °F    
Average Humidity 58    
Maximum Humidity 86    
Minimum Humidity 30    
Precipitation  
Precipitation 0.00 in - - ()
Sea Level Pressure  
Sea Level Pressure 30.05 in    
Wind  
Wind Speed 6 mph (WSW)    
Max Wind Speed 14 mph    
Max Gust Speed 21 mph    
Visibility 10 miles    
Events      
Averages and records for this station are not official NWS values.
T = Trace of Precipitation, MM = Missing Value Source: NWS Daily Summary

Daily Weather History Graph

Daily Weather History Graph

Search for Another Location

Airport or City:

Trip Planner

Search our weather history database for the weather conditions in past years. The results will help you decide how hot, cold, wet, or windy it might be!

Date:

Astronomy

Oct. 10, 2012 Rise Set
Actual Time 7:22 AM CDT 6:37 PM CDT
Civil Twilight 6:53 AM CDT 7:06 PM CDT
Nautical Twilight 6:20 AM CDT 7:39 PM CDT
Astronomical Twilight 5:46 AM CDT 8:12 PM CDT
Moon 1:49 AM CDT (10/10) 3:49 PM CDT (10/10)
Length of Visible Light 12h 12m
Length of Day
11h 15m
Waning Crescent, 27% of the Moon is Illuminated
Oct 10
Waning Crescent
Oct 15
New
Oct 21
First Quarter
Oct 29
Full
Nov 6
Last Quarter

Hourly Weather History & Observations

Time (CDT) Temp. Windchill Dew Point Humidity Pressure Visibility Wind Dir Wind Speed Gust Speed Precip Events Conditions
12:12 AM 33.8 °F 28.6 °F 24.8 °F 70% 30.01 in 10.0 mi WNW 5.8 mph - N/A   Clear
12:32 AM 32.0 °F 26.4 °F 24.8 °F 75% 30.01 in 10.0 mi West 5.8 mph - N/A   Clear
12:53 AM 30.2 °F 25.4 °F 24.8 °F 80% 30.01 in 10.0 mi West 4.6 mph - N/A   Clear
1:12 AM 30.2 °F 25.4 °F 24.8 °F 80% 30.01 in 10.0 mi West 4.6 mph - N/A   Clear
1:32 AM 30.2 °F 25.4 °F 24.8 °F 80% 30.02 in 10.0 mi WNW 4.6 mph - N/A   Clear
1:52 AM 30.2 °F 24.3 °F 24.8 °F 80% 30.02 in 10.0 mi WNW 5.8 mph - N/A   Clear
2:13 AM 30.2 °F 25.4 °F 24.8 °F 80% 30.03 in 10.0 mi West 4.6 mph - N/A   Clear
2:33 AM 30.2 °F 25.4 °F 24.8 °F 80% 30.02 in 10.0 mi WNW 4.6 mph - N/A   Clear
2:52 AM 30.2 °F 25.4 °F 24.8 °F 80% 30.02 in 10.0 mi West 4.6 mph - N/A   Clear
3:12 AM 30.2 °F 25.4 °F 24.8 °F 80% 30.02 in 10.0 mi WNW 4.6 mph - N/A   Clear
3:33 AM 30.2 °F 25.4 °F 24.8 °F 80% 30.02 in 10.0 mi WNW 4.6 mph - N/A   Clear
3:52 AM 30.2 °F 25.4 °F 24.8 °F 80% 30.02 in 10.0 mi WNW 4.6 mph - N/A   Clear
4:12 AM 28.4 °F 24.6 °F 24.8 °F 86% 30.03 in 10.0 mi West 3.5 mph - N/A   Clear
4:33 AM 28.4 °F 23.3 °F 24.8 °F 86% 30.03 in 10.0 mi West 4.6 mph - N/A   Clear
4:52 AM 30.2 °F 26.7 °F 24.8 °F 80% 30.04 in 10.0 mi West 3.5 mph - N/A   Scattered Clouds
5:13 AM 30.2 °F 26.7 °F 24.8 °F 80% 30.04 in 10.0 mi West 3.5 mph - N/A   Overcast
5:33 AM 32.0 °F 28.7 °F 26.6 °F 80% 30.05 in 10.0 mi West 3.5 mph - N/A   Overcast
5:52 AM 32.0 °F 27.5 °F 26.6 °F 80% 30.06 in 10.0 mi WSW 4.6 mph - N/A   Overcast
6:13 AM 33.8 °F 29.6 °F 26.6 °F 75% 30.06 in 10.0 mi West 4.6 mph - N/A   Overcast
6:32 AM 33.8 °F 29.6 °F 26.6 °F 75% 30.07 in 10.0 mi West 4.6 mph - N/A   Mostly Cloudy
6:53 AM 30.2 °F 26.7 °F 26.6 °F 86% 30.07 in 10.0 mi West 3.5 mph - N/A   Scattered Clouds
7:13 AM 30.2 °F 26.7 °F 26.6 °F 86% 30.08 in 10.0 mi West 3.5 mph - N/A   Clear
7:53 AM 30.2 °F - 26.6 °F 86% 30.09 in 10.0 mi Calm Calm - N/A   Clear
8:33 AM 33.8 °F 28.6 °F 26.6 °F 75% 30.11 in 10.0 mi West 5.8 mph - N/A   Clear
8:53 AM 33.8 °F 29.6 °F 26.6 °F 75% 30.12 in 10.0 mi WNW 4.6 mph - N/A   Clear
9:12 AM 35.6 °F 30.7 °F 28.4 °F 75% 30.12 in 10.0 mi WNW 5.8 mph - N/A   Clear
9:33 AM 37.4 °F 32.1 °F 28.4 °F 70% 30.12 in 10.0 mi NW 6.9 mph - N/A   Clear
9:53 AM 37.4 °F 30.8 °F 28.4 °F 70% 30.13 in 10.0 mi NW 9.2 mph - N/A   Clear
10:12 AM 39.2 °F 33.0 °F 28.4 °F 65% 30.12 in 10.0 mi WNW 9.2 mph - N/A   Clear
10:33 AM 41.0 °F 39.0 °F 28.4 °F 61% 30.12 in 10.0 mi NW 3.5 mph - N/A   Clear
10:52 AM 42.8 °F 37.5 °F 28.4 °F 57% 30.13 in 10.0 mi West 9.2 mph - N/A   Clear
11:12 AM 42.8 °F 38.0 °F 28.4 °F 57% 30.13 in 10.0 mi West 8.1 mph - N/A   Clear
11:52 AM 44.6 °F 39.7 °F 26.6 °F 49% 30.13 in 10.0 mi West 9.2 mph - N/A   Clear
12:13 PM 44.6 °F 39.2 °F 26.6 °F 49% 30.14 in 10.0 mi West 10.4 mph 16.1 mph N/A   Scattered Clouds
12:33 PM 46.4 °F 42.4 °F 26.6 °F 46% 30.13 in 10.0 mi WNW 8.1 mph - N/A   Scattered Clouds
12:52 PM 46.4 °F 42.4 °F 26.6 °F 46% 30.12 in 10.0 mi West 8.1 mph - N/A   Scattered Clouds
1:13 PM 46.4 °F 41.9 °F 24.8 °F 43% 30.11 in 10.0 mi West 9.2 mph - N/A   Scattered Clouds
1:33 PM 48.2 °F - 24.8 °F 40% 30.10 in 10.0 mi West 11.5 mph 20.7 mph N/A   Scattered Clouds
1:52 PM 46.4 °F 42.4 °F 24.8 °F 43% 30.10 in 10.0 mi WNW 8.1 mph 17.3 mph N/A   Scattered Clouds
2:13 PM 50.0 °F - 24.8 °F 37% 30.08 in 10.0 mi WSW 10.4 mph 16.1 mph N/A   Scattered Clouds
2:33 PM 48.2 °F - 24.8 °F 40% 30.08 in 10.0 mi West 8.1 mph 19.6 mph N/A   Scattered Clouds
2:52 PM 51.8 °F - 24.8 °F 35% 30.07 in 10.0 mi WSW 9.2 mph 17.3 mph N/A   Mostly Cloudy
3:13 PM 51.8 °F - 24.8 °F 35% 30.07 in 10.0 mi West 11.5 mph 18.4 mph N/A   Scattered Clouds
3:33 PM 51.8 °F - 24.8 °F 35% 30.06 in 10.0 mi WSW 13.8 mph 18.4 mph N/A   Scattered Clouds
3:52 PM 51.8 °F - 24.8 °F 35% 30.06 in 10.0 mi West 10.4 mph 17.3 mph N/A   Scattered Clouds
4:13 PM 51.8 °F - 24.8 °F 35% 30.04 in 10.0 mi West 8.1 mph - N/A   Clear
4:33 PM 51.8 °F - 23.0 °F 33% 30.04 in 10.0 mi WSW 8.1 mph - N/A   Clear
4:52 PM 51.8 °F - 23.0 °F 33% 30.04 in 10.0 mi WSW 9.2 mph - N/A   Clear
5:13 PM 51.8 °F - 23.0 °F 33% 30.03 in 10.0 mi SW 11.5 mph - N/A   Clear
5:33 PM 51.8 °F - 21.2 °F 30% 30.03 in 10.0 mi WSW 10.4 mph 16.1 mph N/A   Clear
5:52 PM 51.8 °F - 21.2 °F 30% 30.02 in 10.0 mi SW 5.8 mph - N/A   Clear
6:13 PM 51.8 °F - 21.2 °F 30% 30.02 in 10.0 mi SW 5.8 mph - N/A   Clear
6:32 PM 50.0 °F - 24.8 °F 37% 30.01 in 10.0 mi SSW 4.6 mph - N/A   Clear
6:52 PM 48.2 °F - 23.0 °F 37% 30.01 in 10.0 mi South 3.5 mph - N/A   Clear
7:13 PM 46.4 °F 44.3 °F 24.8 °F 43% 30.01 in 10.0 mi South 4.6 mph - N/A   Clear
7:33 PM 44.6 °F 40.7 °F 24.8 °F 46% 30.01 in 10.0 mi South 6.9 mph - N/A   Clear
7:52 PM 46.4 °F 43.5 °F 24.8 °F 43% 30.00 in 10.0 mi South 5.8 mph - N/A   Clear
8:12 PM 46.4 °F 42.9 °F 26.6 °F 46% 30.00 in 10.0 mi South 6.9 mph - N/A   Clear
8:33 PM 46.4 °F 42.9 °F 26.6 °F 46% 30.00 in 10.0 mi South 6.9 mph - N/A   Clear
8:52 PM 44.6 °F 40.2 °F 26.6 °F 49% 30.00 in 10.0 mi South 8.1 mph - N/A   Clear
9:12 PM 44.6 °F 39.2 °F 26.6 °F 49% 29.98 in 10.0 mi South 10.4 mph - N/A   Clear
9:33 PM 44.6 °F 38.8 °F 26.6 °F 49% 29.97 in 10.0 mi South 11.5 mph - N/A   Clear
9:52 PM 44.6 °F 38.4 °F 26.6 °F 49% 29.96 in 10.0 mi South 12.7 mph - N/A   Clear
10:12 PM 44.6 °F 38.8 °F 26.6 °F 49% 29.96 in 10.0 mi South 11.5 mph - N/A   Clear
10:52 PM 44.6 °F 39.7 °F 26.6 °F 49% 29.95 in 10.0 mi South 9.2 mph - N/A   Clear
11:13 PM 46.4 °F 41.1 °F 26.6 °F 46% 29.94 in 10.0 mi South 11.5 mph 17.3 mph N/A   Clear
11:33 PM 46.4 °F 41.1 °F 26.6 °F 46% 29.94 in 10.0 mi South 11.5 mph 20.7 mph N/A   Clear
11:52 PM 46.4 °F 41.1 °F 26.6 °F 46% 29.93 in 10.0 mi South 11.5 mph 17.3 mph N/A   Clear